Tracking 22438 objects as of 24-Feb-2021
HD Live streaming from Space Station
objects crossing your sky now

BREEZE-M DEB

Track BREEZE-M DEB now!
10-day predictions


NORAD ID: 34254
Int'l Code: 2006-006BV
Perigee: 453.0 km
Apogee: 11,839.0 km
Inclination: 51.6 °
Period: 232.3 minutes
Semi major axis: 12516 km
RCS: 0.033 m2 (small)
Launch date: February 28, 2006
Source: Commonwealth of Independent States (former USSR) (CIS)
Launch site: TYURATAM MISSILE AND SPACE COMPLEX (TTMTR)

Note: This is SATELLITE DEBRIS
aabbcc
Your satellite tracking list
Your tracking list is empty




NASA's NSSDC Master Catalog

Two Line Element Set (TLE):
1 34254U 06006BV  21053.80607567  .00004565  00000-0  35289-2 0  9999
2 34254  51.6399 274.1816 4548199 132.9501 275.5433  6.19944879269196
Source of the keplerian elements: AFSPC